EW3719 Weather Reports


Display with metric or nautical units.
time (UTC)temp
F
wind
direction
speed
MPH
gust
MPH
rain 1hr
in
rain 24hr
in
rain mn
in
humidity
%
barometer
mb
20260906090044 57 68 5.0 9.0 0.00 0.00 0.00 92 1016.8
20260906084542 58 65 4.0 10.0 0.00 0.00 0.00 91 1016.6
20260906083040 58 65 6.0 13.0 0.00 0.00 0.00 91 1016.4
20260906081538 59 53 6.0 13.0 0.00 0.00 0.00 92 1016.2
20260906080033 59 75 7.0 14.0 0.00 0.00 0.00 92 1015.9
20260906074529 60 63 7.0 13.0 0.00 0.00 0.00 92 1015.8
20260906073027 60 58 5.0 12.0 0.00 0.00 0.00 92 1015.8
20260906071525 60 75 6.0 15.0 0.00 0.00 0.00 92 1015.7
20260906070023 61 65 6.0 12.0 0.00 0.00 0.00 92 1015.7
20260906064532 61 70 5.0 12.0 0.00 0.00 0.00 93 1015.6
20260906063020 61 63 4.0 9.0 0.00 0.00 0.00 93 1015.5
20260906061524 61 68 2.0 6.0 0.00 0.00 0.00 95 1015.4
20260906060016 61 60 1.0 6.0 0.00 0.00 0.00 94 1015.4
20260906054526 61 56 2.0 6.0 0.00 0.00 0.00 93 1015.4
20260906053012 62 61 2.0 7.0 0.00 0.00 0.00 92 1015.4
20260906051510 62 68 4.0 9.0 0.00 0.00 0.00 92 1015.3
20260906050009 62 62 4.0 7.0 0.00 0.00 0.00 93 1015.2
20260906044508 63 43 3.0 6.0 0.00 0.00 0.00 92 1015.2
20260906043018 63 63 3.0 7.0 0.00 0.00 0.00 91 1015.1
20260906041503 63 59 1.0 6.0 0.00 0.00 0.00 90 1015.1
20260906040100 64 63 2.0 6.0 0.00 0.00 0.00 89 1015.2
20260906034605 64 58 2.0 9.0 0.00 0.00 0.00 89 1015.2
20260906033058 64 85 3.0 7.0 0.00 0.00 0.00 90 1014.9
20260906031557 64 48 2.0 8.0 0.00 0.00 0.00 90 1014.9
20260906030056 64 58 0.0 3.0 0.00 0.00 0.00 91 1014.8
20260906024555 64 80 2.0 4.0 0.00 0.00 0.00 90 1014.7
20260906023101 64 80 0.0 2.0 0.00 0.00 0.00 90 1014.7
20260906021555 65 79 1.0 3.0 0.00 0.00 0.00 89 1014.7
20260906020054 64 44 0.0 3.0 0.00 0.00 0.00 90 1014.6
20260906014557 64 7 0.0 3.0 0.00 0.00 0.00 91 1014.8
20260906013054 64 44 0.0 0.0 0.00 0.00 0.00 90 1014.6
20260906011554 65 59 0.0 0.0 0.00 0.00 0.00 90 1014.6
20260906010049 65 56 0.0 1.0 0.00 0.00 0.00 89 1014.4
20260906004549 65 55 0.0 2.0 0.00 0.00 0.00 88 1014.3
20260906003048 66 32 0.0 0.0 0.00 0.00 0.00 87 1014.2
20260906001547 66 48 0.0 0.0 0.00 0.00 0.00 86 1014.1
20260906000047 66 51 0.0 0.0 0.00 0.00 0.00 86 1014.1
20260905234547 66 9 0.0 3.0 0.00 0.00 0.00 87 1014.0
20260905233047 66 333 2.0 11.0 0.00 0.00 0.00 87 1014.2
20260905231547 68 356 6.0 13.0 0.00 0.00 0.00 86 1014.4
20260905230043 70 354 1.0 4.0 0.00 0.00 0.00 80 1014.2
20260905224543 71 193 0.0 0.0 0.00 0.00 0.00 78 1013.9
20260905223042 71 193 0.0 0.0 0.00 0.00 0.00 79 1013.8
20260905221544 70 193 0.0 0.0 0.00 0.00 0.00 79 1013.7
20260905220041 70 94 0.0 0.0 0.00 0.00 0.00 80 1013.7
20260905214540 69 72 0.0 5.0 0.00 0.00 0.00 79 1013.7
20260905213040 70 37 0.0 7.0 0.00 0.00 0.00 80 1013.3
20260905211542 71 336 1.0 4.0 0.00 0.00 0.00 79 1013.3
20260905210039 71 293 1.0 2.0 0.00 0.00 0.00 76 1013.1
20260905204539 73 26 0.0 5.0 0.00 0.00 0.00 71 1013.0
20260905203038 72 345 2.0 6.0 0.00 0.00 0.00 72 1013.1
20260905201536 73 266 1.0 5.0 0.00 0.00 0.00 74 1013.1
20260905200037 72 35 4.0 8.0 0.00 0.00 0.00 71 1013.3
20260905194540 72 11 3.0 5.0 0.00 0.00 0.00 73 1013.2
20260905193035 72 49 4.0 8.0 0.00 0.00 0.00 75 1013.2
20260905191540 71 7 4.0 9.0 0.00 0.00 0.00 74 1013.2
20260905190044 72 30 1.0 8.0 0.00 0.00 0.00 77 1013.2
20260905184538 71 27 5.0 9.0 0.00 0.00 0.00 75 1013.3
20260905183029 71 26 7.0 11.0 0.00 0.00 0.00 76 1013.3
20260905181528 71 32 4.0 12.0 0.00 0.00 0.00 79 1013.2
20260905180028 70 56 7.0 12.0 0.00 0.00 0.00 78 1013.1
20260905174526 69 25 5.0 10.0 0.00 0.00 0.00 82 1013.4
20260905173023 69 359 6.0 11.0 0.00 0.00 0.00 81 1013.4
20260905171525 69 45 4.0 9.0 0.00 0.00 0.00 80 1013.4
20260905170022 69 48 7.0 0.0 0.00 0.00 0.00 80 1013.6
20260905164520 69 58 5.0 10.0 0.00 0.00 0.00 80 1013.6
20260905163016 67 290 0.0 4.0 0.00 0.00 0.00 84 1013.7
20260905161515 67 8 0.0 4.0 0.00 0.00 0.00 85 1013.7
20260905160019 67 300 3.0 7.0 0.00 0.00 0.00 84 1013.8
20260905154513 67 202 3.0 6.0 0.00 0.00 0.00 84 1013.6
20260905153011 66 332 3.0 6.0 0.00 0.00 0.00 86 1013.8
20260905151513 64 9 1.0 8.0 0.00 0.00 0.00 89 1014.0
20260905150009 64 51 2.0 8.0 0.00 0.00 0.00 89 1014.1
20260905144519 64 42 1.0 10.0 0.00 0.00 0.00 88 1014.0
20260905143008 64 60 5.0 10.0 0.00 0.00 0.00 87 1013.9
20260905141508 64 25 0.0 7.0 0.00 0.00 0.00 89 1013.9
20260905140006 64 49 1.0 7.0 0.00 0.00 0.00 89 1013.7
20260905134506 64 59 2.0 6.0 0.00 0.00 0.00 88 1013.7
20260905133105 64 50 1.0 6.0 0.00 0.00 0.00 89 1013.7
20260905131506 63 66 1.0 7.0 0.00 0.00 0.00 90 1013.9
20260905130002 63 56 4.0 10.0 0.00 0.00 0.00 89 1013.7
20260905124502 63 58 5.0 10.0 0.00 0.00 0.00 89 1013.7
20260905123101 63 326 3.0 6.0 0.00 0.00 0.00 90 1013.6
20260905121602 63 42 0.0 7.0 0.00 0.00 0.00 90 1013.5
20260905120058 62 9 3.0 8.0 0.00 0.00 0.00 91 1013.4
20260905114556 62 5 3.0 6.0 0.00 0.00 0.00 91 1013.2
20260905113055 62 30 3.0 6.0 0.00 0.00 0.00 91 1012.9
20260905111555 62 20 1.0 5.0 0.00 0.00 0.00 92 1012.8
20260905110050 62 41 1.0 6.0 0.00 0.00 0.00 92 1012.6
20260905104555 61 2 2.0 5.0 0.00 0.00 0.00 93 1012.4
20260905103052 61 43 0.0 4.0 0.00 0.00 0.00 92 1012.5
20260905101548 62 30 2.0 8.0 0.00 0.00 0.00 92 1012.4
20260905100055 62 41 4.0 8.0 0.00 0.00 0.00 91 1012.3
20260905094544 63 356 4.0 8.0 0.00 0.00 0.00 90 1012.2
20260905093042 63 1 4.0 9.0 0.00 0.00 0.00 90 1012.2
20260905091541 63 306 3.0 8.0 0.00 0.00 0.00 89 1012.3